DateTimeUTC,F1_A11,F1_S11,BsB_S11,BsG_S11,BsR_S11,BbsB_S11,BbsG_S11,BbsR_S11,BaB_A11,BaG_A11,BaR_A11,Tu_S11,T_S11,Uu_S11,U_S11,P_S11,T1_A11
2021-11-24T10:00:00Z,00000200,21000000,,,,,,,-000.07,0000.36,-000.11,18.7,25.5,,00.0,0637.2,30.8
2021-11-24T10:01:00Z,00000200,21000000,,,,,,,0000.32,0000.17,0000.15,18.7,25.5,,00.0,0637.3,30.8
2021-11-24T10:02:00Z,00000200,21000000,,,,,,,0000.15,-000.26,-000.02,18.7,25.5,,00.0,0637.2,30.8
2021-11-24T10:03:00Z,00000200,61000000,,,,,,,-000.09,-000.02,0000.28,18.7,25.5,,00.0,0637.2,30.9
2021-11-24T10:04:00Z,00000200,41000000,0000.53,-000.01,0000.05,0000.26,0000.05,0000.06,0000.26,0000.41,0000.11,19.1,25.5,,00.0,0638.0,30.9
2021-11-24T10:05:00Z,00000200,01000000,0000.61,0000.14,0000.41,0000.62,0000.04,-000.23,-000.00,-000.02,-000.11,19.2,25.4,,00.0,0638.1,30.9
2021-11-24T10:06:00Z,00000200,01000000,0000.28,0000.70,0000.08,0000.32,-000.01,-000.08,-000.07,0000.16,0000.21,19.2,25.5,,00.0,0638.0,30.9
2021-11-24T10:07:00Z,00000200,01000000,0000.22,0000.11,0000.24,0000.39,0000.48,0000.07,0000.17,0000.07,-000.06,19.2,25.5,,00.0,0638.0,30.9
2021-11-24T10:08:00Z,00000200,01000000,0000.29,0000.33,0000.27,0000.06,0000.50,-000.05,0000.19,-000.00,0000.13,19.1,25.5,,00.0,0638.0,30.9
2021-11-24T10:09:00Z,00000200,01000000,0000.05,0000.54,0000.69,0000.09,0000.30,0000.46,0000.22,0000.31,-000.08,19.0,25.4,,00.0,0637.9,30.8
2021-11-24T10:10:00Z,00000200,01000000,0000.33,0000.07,0000.22,0000.54,-000.17,0000.01,0000.13,0000.35,0000.33,19.0,25.4,,00.0,0637.9,30.8
2021-11-24T10:11:00Z,00000200,01000000,0000.39,0000.38,0000.20,0000.06,-000.02,-000.02,0000.15,0000.01,0000.09,18.9,25.3,,00.0,0637.9,30.8
2021-11-24T10:12:00Z,00000200,01000000,0000.36,0000.12,0000.35,0000.11,0000.20,-000.13,0000.11,0000.24,0000.15,18.9,25.3,,00.0,0637.9,30.8
2021-11-24T10:13:00Z,00000200,01000000,0000.38,-000.11,0000.52,0000.05,0000.14,0000.11,0000.38,-000.09,0000.22,19.0,25.3,,00.0,0637.8,30.8
2021-11-24T10:14:00Z,00000200,01000000,0000.25,0000.34,0000.01,0000.39,0000.31,-000.24,0000.36,0000.47,0000.23,19.0,25.3,,00.0,0637.8,30.8
2021-11-24T10:15:00Z,00000200,01000000,0000.61,0000.44,0000.22,0000.04,0000.02,0000.06,0000.18,0000.28,0000.14,19.0,25.3,,00.0,0637.8,30.8
2021-11-24T10:16:00Z,00000200,01000000,0000.85,0000.31,0000.38,0000.32,0000.50,-000.25,0000.26,-000.10,-000.08,19.1,25.4,,00.0,0637.8,30.8
2021-11-24T10:17:00Z,00000200,01000000,0000.94,0000.25,0000.15,0000.43,-000.13,-000.05,0000.03,0000.22,0000.60,19.1,25.4,,00.0,0637.8,30.8
2021-11-24T10:18:00Z,00000200,01000000,0000.39,0000.22,0000.01,0000.20,-000.04,-000.10,0000.01,0000.04,-000.55,19.1,25.4,,00.0,0637.8,30.9
2021-11-24T10:19:00Z,00000200,01000000,-000.70,0000.27,0000.13,0000.27,-000.14,-000.09,0000.19,0000.14,0000.54,19.2,25.4,,00.0,0637.7,30.9
2021-11-24T10:20:00Z,00000200,01000000,0000.11,0000.50,0000.25,-000.30,0000.19,0000.05,0000.03,0000.01,0000.13,19.2,25.5,,00.0,0637.7,30.9
2021-11-24T10:21:00Z,00000200,01000000,0000.65,0000.62,0000.21,0000.92,-000.25,-000.13,0000.23,-000.07,-000.28,19.2,25.4,,00.0,0637.6,30.9
2021-11-24T10:22:00Z,00000200,01000000,0001.04,0000.23,0000.31,0000.10,0000.33,0000.01,-000.35,0000.34,0000.05,19.1,25.4,,00.0,0637.6,30.8
2021-11-24T10:23:00Z,00000200,01000000,0000.44,0000.18,0000.45,0000.01,-000.04,0000.11,0000.40,-000.22,-000.11,19.0,25.4,,00.0,0637.6,30.8
2021-11-24T10:24:00Z,00000200,01000000,0001.13,0000.02,0000.12,0000.02,0000.06,-000.14,-000.09,-000.05,0000.40,18.9,25.3,,00.0,0637.6,30.8
2021-11-24T10:25:00Z,00000200,01000000,0000.67,0000.53,-000.09,-000.29,-000.04,-000.05,0000.64,0000.87,0000.14,18.8,25.2,,00.0,0637.5,30.8
2021-11-24T10:26:00Z,00000200,01000000,-000.09,0000.74,0000.65,0000.59,-000.13,-000.12,0000.18,0000.02,0000.09,18.7,25.2,,00.0,0637.5,30.8
2021-11-24T10:27:00Z,00000200,01000000,-000.02,0000.77,0000.12,0000.08,-000.12,-000.22,-000.07,0000.20,-000.03,18.8,25.2,,00.0,0637.5,30.8
2021-11-24T10:28:00Z,00000200,01000000,-000.42,0000.37,0000.33,0000.07,0000.03,0000.17,0000.48,0000.35,0000.56,18.8,25.2,,00.0,0637.5,30.8
2021-11-24T10:29:00Z,00000200,01000000,-000.01,0000.46,0000.17,-000.40,-000.21,-000.04,-000.04,0000.08,-000.18,18.8,25.2,,00.0,0637.5,30.8
2021-11-24T10:30:00Z,00000200,01000000,0000.81,0000.06,0000.71,0000.16,0000.32,0000.24,0000.35,0000.13,0000.36,18.9,25.2,,00.0,0637.5,30.8
2021-11-24T10:31:00Z,00000200,01000000,0000.91,0000.05,0000.41,-000.14,0000.08,0000.08,0000.41,0000.27,-000.12,18.9,25.3,,00.0,0637.4,30.8
2021-11-24T10:32:00Z,00000200,01000000,0000.78,0000.65,0000.38,0000.24,0000.07,0000.09,0000.32,0000.21,0000.40,19.0,25.3,,00.0,0637.5,30.8
2021-11-24T10:33:00Z,00000200,01000000,0000.88,-000.05,0000.52,0000.06,0000.13,0000.36,-000.27,-000.20,-000.05,19.0,25.3,,00.0,0637.5,30.9
2021-11-24T10:34:00Z,00000200,01000000,0000.64,0000.20,0000.26,0000.68,0000.45,0000.35,0000.17,0000.48,0000.07,19.1,25.3,,00.0,0637.5,30.9
2021-11-24T10:35:00Z,00000200,01000000,-000.33,0000.31,0000.27,0000.17,0000.01,0000.02,0000.27,-000.29,0000.15,19.1,25.4,,00.0,0637.4,30.9
2021-11-24T10:36:00Z,00000200,01000000,0000.06,0000.15,0000.07,0000.35,-000.09,0000.03,0000.21,0000.29,0000.15,19.2,25.4,,00.0,0637.5,30.9
2021-11-24T10:37:00Z,00000200,01000000,0000.79,-000.04,0000.41,-000.71,0000.04,0000.00,-000.06,0000.35,0000.14,19.2,25.4,,00.0,0637.4,30.9
2021-11-24T10:38:00Z,00000200,01000000,0000.56,0000.37,0000.30,0000.30,-000.03,0000.18,-000.02,-000.09,-000.21,19.2,25.4,,00.0,0637.4,30.9
2021-11-24T10:39:00Z,00000200,01000000,0000.30,0000.37,0000.30,0000.13,-000.22,-000.15,0000.38,-000.19,0000.02,19.2,25.4,,00.0,0637.3,30.9
2021-11-24T10:40:00Z,00000200,01000000,0000.39,0000.45,0000.00,0000.28,0000.27,-000.19,0000.05,0000.33,0000.53,19.1,25.4,,00.0,0637.3,30.8
2021-11-24T10:41:00Z,00000200,01000000,0000.64,0000.29,0000.07,0000.70,-000.18,0000.21,0000.28,0000.29,0000.11,19.1,25.4,,00.0,0637.3,30.9
2021-11-24T10:42:00Z,00000200,01000000,0000.60,0000.37,0000.45,-000.43,0000.47,-000.25,0000.30,0000.30,0000.18,19.1,25.4,,00.0,0637.3,30.8
2021-11-24T10:43:00Z,00000200,01000000,-000.31,0000.20,0000.35,-000.14,-000.09,-000.02,-000.15,0000.09,-000.06,19.1,25.4,,00.0,0637.3,30.8
2021-11-24T10:44:00Z,00000200,01000000,0000.75,0000.04,0000.17,-000.44,-000.21,0000.17,0000.27,-000.13,0000.43,19.1,25.4,,00.0,0637.2,30.8
2021-11-24T10:45:00Z,00000200,01000000,0000.63,0000.28,0000.12,0000.91,0000.21,0000.02,0000.44,0000.77,0000.06,19.2,25.4,,00.0,0637.2,30.9
2021-11-24T10:46:00Z,00000200,01000000,0000.75,0000.38,0000.33,-000.08,-000.11,-000.08,0000.28,-000.14,0000.23,19.2,25.4,,00.0,0637.2,30.9
2021-11-24T10:47:00Z,00000200,01000000,0000.99,0000.23,0000.43,0000.06,-000.13,-000.14,-000.08,-000.19,-000.25,19.3,25.5,,00.0,0637.1,30.9
2021-11-24T10:48:00Z,00000200,01000000,-000.62,0000.54,0000.30,0000.49,0000.19,-000.21,-000.19,0000.35,0000.28,19.3,25.5,,00.0,0637.1,30.9
2021-11-24T10:49:00Z,00000200,01000000,0000.54,0000.49,0000.07,0000.60,0000.04,-000.03,0000.47,0000.20,0000.17,19.3,25.5,,00.0,0637.0,30.9
2021-11-24T10:50:00Z,00000200,01000000,0000.29,0000.67,0000.44,-000.03,0000.10,0000.14,-000.29,-000.23,0000.05,19.2,25.5,,00.0,0637.0,30.8
2021-11-24T10:51:00Z,00000200,01000000,0000.59,0000.12,0000.43,-000.14,0000.29,-000.12,0000.20,-000.00,-000.06,19.1,25.4,,00.0,0637.0,30.8
2021-11-24T10:52:00Z,00000200,01000000,0000.60,0000.51,0000.16,0000.20,0000.30,0000.06,-000.12,-000.22,0000.10,19.0,25.4,,00.0,0637.0,30.8
2021-11-24T10:53:00Z,00000200,01000000,-000.37,0000.32,0000.48,0000.17,0000.04,0000.04,0000.15,0000.21,-000.23,19.0,25.4,,00.0,0637.0,30.8
2021-11-24T10:54:00Z,00000200,01000000,0000.09,0000.18,0000.56,0000.26,0000.19,0000.14,-000.06,0000.10,0000.15,18.9,25.3,,00.0,0636.9,30.8
2021-11-24T10:55:00Z,00000200,01000000,0001.14,0000.18,0000.69,0000.38,0000.15,-000.15,0000.39,0000.38,0000.20,18.8,25.2,,00.0,0636.9,30.8
2021-11-24T10:56:00Z,00000200,01000000,0000.74,0000.39,0000.18,-000.37,0000.25,0000.08,0000.09,0000.14,-000.20,18.8,25.2,,00.0,0636.9,30.7
2021-11-24T10:57:00Z,00000200,41000000,,,,,,,-000.16,-000.28,-000.03,18.8,25.2,,00.0,0636.8,30.8
2021-11-24T10:58:00Z,00000200,61000000,,,,,,,-000.50,0000.10,-000.16,18.5,25.3,,00.0,0636.0,30.8
2021-11-24T10:59:00Z,00000200,21000000,,,,,,,0000.89,0000.37,0000.53,18.5,25.4,,00.0,0636.0,30.8
